Pella, IA

10:39 PM CST on January 23, 2018 (GMT -0600)
Pella Municipal

Weather History for KPEA - October, 2012

Change the Weather History Date:

Monday, October 22, 2012

  Actual Average (KOXV) Record (KOXV)
Temperature  
Mean Temperature 68 °F -  
Max Temperature 72 °F 66 °F 82 °F (1963)
Min Temperature 63 °F 41 °F 21 °F (1976)
Cooling Degree Days 2    
Growing Degree Days 18 (Base 50)    
Moisture  
Dew Point 64 °F    
Average Humidity 87    
Maximum Humidity 96    
Minimum Humidity 75    
Precipitation  
Precipitation 0.61 in - - ()
Sea Level Pressure  
Sea Level Pressure 29.82 in    
Wind  
Wind Speed 7 mph (ESE)    
Max Wind Speed 13 mph    
Max Gust Speed 24 mph    
Visibility 8 miles    
Events Rain    
Averages and records for this station are not official NWS values.
T = Trace of Precipitation, MM = Missing Value Source: NWS Daily Summary

Daily Weather History Graph

Daily Weather History Graph

Search for Another Location

Airport or City:

Trip Planner

Search our weather history database for the weather conditions in past years. The results will help you decide how hot, cold, wet, or windy it might be!

Date:

Astronomy

Oct. 22, 2012 Rise Set
Actual Time 7:32 AM CDT 6:19 PM CDT
Civil Twilight 7:03 AM CDT 6:47 PM CDT
Nautical Twilight 6:31 AM CDT 7:19 PM CDT
Astronomical Twilight 5:59 AM CDT 7:51 PM CDT
Moon 2:32 PM CDT (10/22) 12:14 AM CDT (10/22)
Length of Visible Light 11h 43m
Length of Day
10h 47m
First Quarter, 56% of the Moon is Illuminated
Oct 22
First Quarter
Oct 29
Full
Nov 6
Last Quarter
Nov 13
New
Nov 20
First Quarter

Hourly Weather History & Observations

Time (CDT) Temp. Dew Point Humidity Pressure Visibility Wind Dir Wind Speed Gust Speed Precip Events Conditions
12:15 AM 65.3 °F 59.2 °F 81% 29.85 in 10.0 mi ESE 6.9 mph - N/A   Scattered Clouds
12:55 AM 65.1 °F 59.2 °F 81% 29.84 in 10.0 mi ESE 8.1 mph - N/A   Mostly Cloudy
1:15 AM 64.9 °F 59.4 °F 82% 29.84 in 10.0 mi ESE 6.9 mph - N/A   Mostly Cloudy
1:35 AM 65.3 °F 59.9 °F 83% 29.84 in 10.0 mi SE 6.9 mph - N/A   Mostly Cloudy
1:55 AM 66.2 °F 59.9 °F 80% 29.83 in 10.0 mi ESE 8.1 mph - N/A   Mostly Cloudy
2:15 AM 65.7 °F 59.7 °F 81% 29.83 in 10.0 mi ESE 5.8 mph - N/A   Scattered Clouds
2:35 AM 65.7 °F 59.5 °F 81% 29.82 in 10.0 mi ESE 6.9 mph - N/A   Scattered Clouds
2:55 AM 64.8 °F 59.2 °F 82% 29.82 in 10.0 mi SE 5.8 mph - N/A   Clear
3:15 AM 64.4 °F 59.2 °F 83% 29.81 in 10.0 mi ESE 4.6 mph - N/A   Clear
3:55 AM 63.7 °F 59.4 °F 86% 29.80 in 10.0 mi ESE 6.9 mph - N/A   Clear
4:15 AM 64.2 °F 59.4 °F 84% 29.81 in 10.0 mi ESE 5.8 mph - N/A   Mostly Cloudy
4:35 AM 64.4 °F 59.5 °F 84% 29.81 in 10.0 mi ESE 5.8 mph - N/A   Mostly Cloudy
4:55 AM 64.4 °F 59.4 °F 84% 29.80 in 10.0 mi ESE 6.9 mph - N/A   Mostly Cloudy
5:15 AM 64.4 °F 59.5 °F 84% 29.81 in 10.0 mi ESE 6.9 mph - N/A   Mostly Cloudy
5:35 AM 64.8 °F 59.9 °F 84% 29.81 in 7.0 mi ESE 4.6 mph - 0.01 in Rain Heavy Rain
5:55 AM 63.9 °F 61.3 °F 91% 29.84 in 1.0 mi WSW 10.4 mph 18.4 mph 0.38 in Rain Heavy Rain
6:15 AM 65.3 °F 63.7 °F 94% 29.86 in 4.0 mi West 12.7 mph 24.2 mph 0.10 in Rain Rain
6:55 AM 64.6 °F 63.1 °F 95% 29.85 in 5.0 mi ESE 6.9 mph - 0.17 in Rain Heavy Rain
7:15 AM 64.4 °F 63.0 °F 95% 29.84 in 4.0 mi ESE 6.9 mph - 0.03 in Rain Rain
7:35 AM 64.4 °F 63.0 °F 95% 29.80 in 5.0 mi ESE 9.2 mph - 0.05 in Rain Light Rain
7:55 AM 64.6 °F 63.5 °F 96% 29.81 in 7.0 mi SE 9.2 mph - 0.06 in Rain Light Rain
8:15 AM 64.6 °F 63.5 °F 96% 29.81 in 10.0 mi East 4.6 mph - N/A   Clear
8:35 AM 64.8 °F 63.5 °F 96% 29.81 in 7.0 mi ESE 6.9 mph - N/A   Clear
8:55 AM 64.8 °F 63.5 °F 96% 29.84 in 5.0 mi Calm Calm - N/A   Scattered Clouds
9:15 AM 64.9 °F 63.7 °F 96% 29.85 in 5.0 mi North 3.5 mph - N/A   Mostly Cloudy
9:35 AM 65.8 °F 64.6 °F 96% 29.86 in 5.0 mi Calm Calm - N/A   Overcast
9:55 AM 66.2 °F 64.8 °F 95% 29.86 in 5.0 mi East 3.5 mph - N/A   Overcast
10:15 AM 67.6 °F 65.8 °F 94% 29.85 in 7.0 mi ESE 5.8 mph - N/A   Mostly Cloudy
10:35 AM 68.4 °F 65.3 °F 90% 29.85 in 7.0 mi ENE 4.6 mph - N/A   Mostly Cloudy
10:55 AM 69.1 °F 65.5 °F 88% 29.84 in 10.0 mi ESE 4.6 mph - N/A   Mostly Cloudy
11:15 AM 70.0 °F 66.2 °F 88% 29.84 in 10.0 mi ESE 3.5 mph - N/A   Mostly Cloudy
11:35 AM 70.9 °F 65.7 °F 83% 29.84 in 10.0 mi ESE 5.8 mph - N/A   Mostly Cloudy
11:55 AM 70.0 °F 64.8 °F 83% 29.84 in 10.0 mi ESE 5.8 mph - N/A   Overcast
12:15 PM 70.2 °F 65.8 °F 86% 29.84 in 10.0 mi ESE 6.9 mph - N/A   Mostly Cloudy
12:35 PM 71.1 °F 64.9 °F 81% 29.84 in 10.0 mi ESE 5.8 mph - N/A   Mostly Cloudy
12:55 PM 70.9 °F 64.8 °F 81% 29.83 in 10.0 mi East 5.8 mph - N/A   Overcast
1:15 PM 71.8 °F 64.2 °F 77% 29.82 in 10.0 mi ESE 6.9 mph - N/A   Overcast
1:35 PM 72.3 °F 64.0 °F 75% 29.81 in 10.0 mi ESE 6.9 mph - N/A   Mostly Cloudy
1:55 PM 72.5 °F 64.2 °F 75% 29.81 in 10.0 mi ESE 8.1 mph - N/A   Scattered Clouds
2:15 PM 72.1 °F 64.4 °F 77% 29.81 in 10.0 mi ESE 5.8 mph - N/A   Scattered Clouds
2:35 PM 72.0 °F 64.4 °F 77% 29.81 in 10.0 mi ESE 5.8 mph - N/A   Scattered Clouds
2:55 PM 72.5 °F 64.8 °F 77% 29.81 in 10.0 mi ESE 4.6 mph - N/A   Scattered Clouds
3:15 PM 72.5 °F 65.1 °F 78% 29.81 in 10.0 mi ESE 8.1 mph - N/A   Scattered Clouds
3:35 PM 72.5 °F 65.3 °F 78% 29.81 in 10.0 mi ESE 6.9 mph - N/A   Scattered Clouds
3:55 PM 72.5 °F 65.5 °F 79% 29.81 in 10.0 mi ESE 6.9 mph - N/A   Scattered Clouds
4:15 PM 72.7 °F 65.7 °F 79% 29.81 in 10.0 mi ESE 8.1 mph - N/A   Scattered Clouds
4:35 PM 72.5 °F 65.8 °F 80% 29.81 in 7.0 mi East 5.8 mph - N/A   Scattered Clouds
4:55 PM 72.7 °F 66.0 °F 80% 29.81 in 10.0 mi ESE 10.4 mph - N/A   Scattered Clouds
5:15 PM 72.1 °F 66.2 °F 82% 29.81 in 7.0 mi East 6.9 mph - N/A   Scattered Clouds
5:35 PM 71.6 °F 65.8 °F 82% 29.81 in 7.0 mi ESE 5.8 mph - N/A   Scattered Clouds
5:55 PM 70.9 °F 66.2 °F 85% 29.82 in 7.0 mi ESE 6.9 mph - N/A   Scattered Clouds
6:15 PM 70.2 °F 66.4 °F 88% 29.82 in 7.0 mi ESE 8.1 mph - N/A   Scattered Clouds
6:35 PM 69.3 °F 66.2 °F 90% 29.82 in 5.0 mi ESE 6.9 mph - N/A   Clear
6:55 PM 68.9 °F 66.2 °F 91% 29.82 in 5.0 mi ESE 6.9 mph - N/A   Clear
7:15 PM 68.2 °F 65.8 °F 92% 29.83 in 5.0 mi ESE 8.1 mph - N/A   Scattered Clouds
7:35 PM 68.0 °F 65.7 °F 92% 29.82 in 5.0 mi ESE 8.1 mph - N/A   Scattered Clouds
7:55 PM 67.6 °F 65.8 °F 94% 29.82 in 4.0 mi ESE 6.9 mph - N/A   Scattered Clouds
8:15 PM 67.5 °F 65.7 °F 94% 29.82 in 4.0 mi ESE 8.1 mph - N/A   Scattered Clouds
8:55 PM 67.1 °F 65.5 °F 95% 29.82 in 4.0 mi East 6.9 mph - N/A   Scattered Clouds
9:15 PM 66.4 °F 64.8 °F 95% 29.81 in 3.0 mi East 6.9 mph - N/A   Mist
9:35 PM 66.2 °F 64.6 °F 94% 29.82 in 3.0 mi ESE 6.9 mph - N/A   Mist
9:55 PM 65.7 °F 64.4 °F 96% 29.82 in 3.0 mi ESE 8.1 mph - N/A   Mist
10:15 PM 65.7 °F 64.4 °F 96% 29.82 in 3.0 mi ESE 6.9 mph - N/A   Mist
10:35 PM 65.3 °F 64.2 °F 96% 29.82 in 4.0 mi ESE 5.8 mph - N/A   Clear
10:55 PM 65.5 °F 64.4 °F 96% 29.82 in 4.0 mi SE 6.9 mph - N/A   Clear
11:15 PM 65.5 °F 64.4 °F 96% 29.81 in 5.0 mi SE 5.8 mph - N/A   Clear
11:35 PM 66.2 °F 64.8 °F 95% 29.81 in 7.0 mi SSE 5.8 mph - N/A   Clear